Weather Roundup
Issued by NWS

Home | Current Version | Previous Version | Text Only | Print | Product List | Glossary On
Versions: 1 2 3 4 5 6 7 8 9 10 11 12 13 14 15 16 17 18 19 20 21 22 23 24 25 26 27 28 29 30 31 32 33 34 35 36 37 38 39 40 41 42 43 44 45 46 47 48 49 50
000
NZUS93 KARX 210310
HRRWXR

CURRENT HOURLY OBSERVATIONS ACROSS
MUCH OF THE UPPER MISSISSIPPI VALLEY
NATIONAL WEATHER SERVICE LA CROSSE WI
900 PM CST THU NOV 20 2014


...SOUTHEAST MINNESOTA...


CITY           SKY/WX    TMP DP  RH WIND       PRES   REMARKS
ROCHESTER      MOCLDY     2  -2  83 SW5       30.22R WCI  -8
ROCHESTER/MAYO FAIR      11   4  71 W3        30.23R
WINONA         PTCLDY    12   5  73 CALM      30.27R
AUSTIN         PTCLDY     5   1  85 CALM      30.22S
ALBERT LEA     PTCLDY     7   3  85 SW2       30.22S
DODGE CENTER   MOCLDY     3   0  85 SW5       30.21R WCI  -6
PRESTON        PTCLDY     6   1  79 NW6       30.23R WCI  -5
OWATONNA       PTCLDY     1  -2  85 CALM      30.22S
FARIBAULT      CLEAR      1  -2  85 CALM      30.23S
$$

...ELSEWHERE IN MINNESOTA...


CITY           SKY/WX    TMP DP  RH WIND       PRES   REMARKS
MINNEAPOLIS    PTCLDY     9   3  77 W3        30.24R
INTNL FALLS    PTCLDY   -10 -15  78 CALM      30.09S
DULUTH         PTCLDY     4  -4  69 W8        30.10S WCI  -9
RED WING         N/A      1  -4  78 CALM      30.24R
REDWOOD FALLS  PTCLDY     3  -1  83 S3        30.22S
MANKATO        PTCLDY    10   1  67 CALM      30.23S
WORTHINGTON    PTCLDY     7   5  92 S3        30.18S
FAIRMONT       PTCLDY     3  -2  78 CALM      30.21F
$$

...SOUTHWEST WISCONSIN...


CITY           SKY/WX    TMP DP  RH WIND       PRES   REMARKS
LA CROSSE      CLEAR     13   1  59 W6        30.26R WCI   4
PRAIRIE DU CHI CLEAR     11   3  67 CALM      30.29R
BOSCOBEL       FAIR      11   3  70 S5        30.28R WCI   3
LONE ROCK      CLEAR     12   0  58 SW3       30.26R
PLATTEVILLE    CLEAR     10   3  73 W5        30.26R WCI   2
FORT MC COY    CLEAR      1  -3  86 CALM      30.25R
CAMP DOUGLAS   CLEAR      1  -1  88 W2        30.22R
VIROQUA        FAIR      10   2  68 W7        30.21R WCI  -1
WIS DELLS      CLEAR     10  -1  60 W5        30.22R WCI   2
$$

...ELSEWHERE IN WISCONSIN...


CITY           SKY/WX    TMP DP  RH WIND       PRES   REMARKS
MILWAUKEE      CLEAR     17  -1  45 NW14      30.22R WCI   3
MADISON        CLEAR     12  -1  56 W3        30.23R
GREEN BAY      CLEAR      9   0  67 W7        30.19R WCI  -2
EAU CLAIRE     PTCLDY     5  -2  72 S3        30.22R
BLACK RVR FLS  FAIR      -5  -9  81 CALM      30.23R
MEDFORD        CLEAR      4  -3  72 CALM      30.14R
WAUSAU         CLEAR      6  -2  69 NW5       30.15R WCI  -3
WIS RAPIDS     CLEAR      6  -4  63 W3        30.21R
MARSHFIELD     CLEAR      4  -5  66 W5        30.17R WCI  -5
RICE LAKE      PTCLDY    -3  -7  82 CALM      30.20R
$$

...NORTHEAST IOWA...


CITY           SKY/WX    TMP DP  RH WIND       PRES   REMARKS
DECORAH        PTCLDY     7   3  85 SW6       30.24R WCI  -3
MASON CITY     PTCLDY     4   1  88 S3        30.26R
CHARLES CITY   PTCLDY     7   1  78 NW5       30.25S WCI  -2
OELWEIN        PTCLDY     7   1  78 NW6       30.26R WCI  -3
$$

...ELSEWHERE IN IOWA...


CITY           SKY/WX    TMP DP  RH WIND       PRES   REMARKS
DES MOINES     CLEAR     20  11  68 CALM      30.28R
IOWA CITY      PTCLDY    12   7  80 CALM      30.31R
FORT DODGE     PTCLDY     7   1  78 CALM      30.25S
$$

...NORTHERN ILLINOIS...


CITY           SKY/WX    TMP DP  RH WIND       PRES   REMARKS
CHICAGO-OHARE  CLEAR     18   4  54 W13       30.23R WCI   5
CHICAGO-MIDWAY CLEAR     21   4  47 W13       30.24R WCI   9
MOLINE         CLEAR     16   7  67 W3        30.30R
ROCKFORD       CLEAR     16   4  59 NW10      30.27R WCI   4
PEORIA         CLEAR     22   8  55 CALM      30.30R
$$

NOTE: "FAIR" INDICATES FEW OR NO CLOUDS BELOW 12,000 FEET WITH NO
SIGNIFICANT WEATHER AND/OR OBSTRUCTIONS TO VISIBILITY. WIND
SPEEDS ARE IN MILES-PER-HOUR.



USA.gov is the U.S. government's official web portal to all federal, state and local government web resources and services.